Regional Weather Roundup
Issued by NWS Wakefield, VA

Home | Current Version | Previous Version | Graphics & Text | Print | Product List | Glossary On
Versions: 1 2 3 4 5 6 7 8 9 10 11 12 13 14 15 16 17 18 19 20 21 22 23 24 25 26 27
000
ASUS41 KAKQ 192216
RWRAKQ

REGIONAL WEATHER ROUNDUP
NATIONAL WEATHER SERVICE WAKEFIELD VA
600 PM EDT WED JUL 19 2017

Note: "fair" indicates few or no clouds below 12,000 feet with no
significant weather and/or obstructions to visibility. * = Denotes
station may not report precipitation (e.g., rain,snow,etc.),
thunder or fog.

VAZ042-051-052>054-056-192300-
NORTHERN VIRGINIA

CITY           SKY/WX    TMP DP  RH WIND       PRES   REMARKS
WASH NATIONAL  PTSUNNY   95  70  44 VRB5      29.99F HX 101
DULLES         MOSUNNY   91  69  48 SW5       30.00F HX  96
FORT BELVOIR   SUNNY     92  70  48 S6        29.99F HX  97
QUANTICO       MOSUNNY   91  73  55 S7        30.00F HX  99
FREDERICKSBRG* SUNNY     93  70  46 E3        29.99F HX  99
STAFFORD*      SUNNY     93  62  35 CALM      30.04F
WARRENTON      SUNNY     94  62  34 CALM      30.01S HX  95
CULPEPER*      SUNNY     92  70  48 CALM      30.01F HX  98
MANASSAS*      SUNNY     93  66  40 W5        30.00F HX  96
LEESBURG*      SUNNY     95  70  43 SW5       30.02S HX 101
WINCHESTER     SUNNY     88  68  51 SE7       30.03S
FRONT ROYAL*   CLEAR     91  70  49 SE5       30.02S HX  97
LURAY*         CLEAR     90  63  40 CALM      30.04S
$$

VAZ048-049-060>072-079>083-192300-
CENTRAL AND SOUTH CENTRAL VIRGINIA

CITY           SKY/WX    TMP DP  RH WIND       PRES   REMARKS
RICHMOND       MOSUNNY   92  65  40 S8        30.00F
CHESTERFIELD*  FAIR      93  65  39 S5        30.01F HX  95
PETERSBURG*    SUNNY     90  62  39 CALM      30.02F
HANOVER        SUNNY     94  67  41 CALM      30.02S HX  97
TAPPAHANNOCK*  SUNNY     94  60  31 E6        30.01F
QUINTON*       FAIR      92  67  43 E3        30.00F HX  95
CHARLOTTSVILLE SUNNY     94  66  39 NE6       30.02F HX  97
GORDONSVILLE*  CLEAR     93  65  39 CALM      30.01S HX  96
ORANGE*        SUNNY     91  64  40 CALM      30.01F
LOUISA*        SUNNY     91  66  43 SE5       30.02S
BUMPASS*       FAIR      92  67  43 CALM      30.01F HX  95
FARMVILLE*     SUNNY     94  53  24 SW5       30.01S
CREWE*         FAIR      93  52  24 CALM      30.02S
FORT PICKETT*  FAIR     N/A N/A N/A SE8       30.02S
CHASE CITY*    CLOUDY    92  67  44 SE3       30.03S HX  95
CLARKSVILLE*   FAIR      90  68  48 CALM      30.03S
SOUTH HILL*    SUNNY     91  66  44 CALM      30.08S
LAWRENCEVILLE* FAIR      92  63  38 MISG      30.02S
EMPORIA*       SUNNY     90  66  45 E7        30.04R
$$

VAZ088>098-192300-
SOUTHEAST VIRGINIA

CITY           SKY/WX    TMP DP  RH WIND       PRES   REMARKS
NORFOLK        SUNNY     88  74  63 SE9       30.01F HX  96
VIRGINIA BEACH PTSUNNY   84  72  67 SE8       30.02F
NORFOLK NAVAL  MOSUNNY   88  73  61 S7        30.03S HX  95
WEST POINT*    SUNNY     92  62  36 SE6       30.02S
SALUDA*        FAIR      88  74  64 E6        30.01S HX  96
NEWPORT NEWS   SUNNY     91  66  43 SW6       30.01S
LANGLEY AFB    MOSUNNY   88  75  64 SE8       30.01S HX  98
FORT EUSTIS    SUNNY     95  68  40 CALM      30.00S HX  99
WILLIAMSBURG*  SUNNY     95  70  43 CALM      30.02S HX 101
HR EXEC AP*    FAIR      88  73  62 S6        29.98S HX  96
FRANKLIN*      SUNNY     90  70  51 CALM      30.02S HX  95
US460-WAKEFLD  SUNNY     90  67  46 CALM      30.02S
$$

VAZ020-022-025-037-045-192300-
WEST CENTRAL AND SOUTHWEST VIRGINIA

CITY           SKY/WX    TMP DP  RH WIND       PRES   REMARKS
STAUNTON*      SUNNY     90  64  41 CALM      30.08S
WAYNESBORO*    CLEAR     90  60  36 CALM      30.08S
HOT SPRINGS VA PTSUNNY   81  48  32 CALM      30.24S
LYNCHBURG      MOSUNNY   91  64  40 VRB6      30.05F
DANVILLE       SUNNY     89  71  55 S5        30.04F HX  95
SOUTH BOSTON*  FAIR      91  63  38 SW3       30.04S
MARTINSVILLE   SUNNY     91  66  42 E3        30.08S
ROANOKE        MOSUNNY   94  59  31 W8        30.07F
BLACKSBURG     SUNNY     88  54  31 NW5       30.16S
DUBLIN*        SUNNY     88  51  28 N6        30.15S
MARION*        MOSUNNY   85  57  38 W7        30.19S
HILLSVILLE*    MOSUNNY   82  55  38 CALM      30.17S
RICHLANDS*     FAIR      84  58  40 CALM      30.19S
WISE*          MOSUNNY   86  61  42 N9        30.19F
ABINGDON*      MOSUNNY   90  60  36 CALM      30.14F
$$

MDZ021>025-VAZ099-100-192300-
SOUTHERN MARYLAND AND THE DELMARVA PENINSULA

CITY           SKY/WX    TMP DP  RH WIND       PRES   REMARKS
PATUXENT RIVER MOSUNNY   89  74  60 SE9       30.00F HX  98
BAY BRIDGE APT MOSUNNY   90  72  55 S7        29.99F HX  96
LEONARDTOWN    SUNNY    N/A N/A N/A CALM      30.02F
DOVER          SUNNY     84  84  99 SE5       29.98F HX 104
GEORGETOWN     MOSUNNY   88  75  65 SW12      30.01S THUNDER HX  97
EASTON         MOSUNNY   91  68  46 W7        30.03F HX  95
CAMBRIDGE      SUNNY     90  72  55 S8        30.00F HX  96
SALISBURY      PTSUNNY   88  75  66 S8        30.00F HX  97
OCEAN CITY     SUNNY     82  75  79 VRB7      30.02S
WALLOPS ISLAND SUNNY     83  75  77 S12       30.03S
ACCOMACK*      SUNNY     87  74  65 S7        30.02S
$$

NCZ012>017-030>032-192300-
NORTH CENTRAL AND EASTERN NORTH CAROLINA

CITY           SKY/WX    TMP DP  RH WIND       PRES   REMARKS
ROANOKE RAPIDS FAIR      90  68  48 S3        30.02S
RALEIGH        MOSUNNY   92  63  38 NE5       30.04S
ELIZABETH CITY SUNNY     86  72  62 S8        30.04S
AHOSKIE*         N/A     87  70  57 S3        30.03S
EDENTON*       SUNNY     89  71  55 CALM      30.04S HX  95
CURRITUCK*     CLOUDY    87  73  62 CALM      30.04S
KILL DEVIL HLS SUNNY     83  72  69 CALM      30.04S
MANTEO         SUNNY     83  72  69 S10       30.05S
CAPE HATTERAS  SUNNY     85  72  65 S9        30.06F
TARBORO*       NOT AVBL
GOLDSBORO      SUNNY     90  71  52 NE7       30.02S HX  96
WASHINGTON     CLOUDY    87  73  64 SE7       30.04R
GREENVILLE     MOSUNNY   90  70  51 S3        30.05R HX  95
NEW BERN       CLOUDY    82  71  69 VRB3      30.07R
WILMINGTON     LGT RAIN  73  71  93 SE5       30.06S
$$

VAZ048-192300-
ELSEWHERE

CITY           SKY/WX    TMP DP  RH WIND       PRES   REMARKS
HARRISBURG PA  PTSUNNY   89  71  55 SW6       29.98F HX  95
BALTIMORE      MOSUNNY   89  73  59 SE7       29.99F HX  97
ANNAPOLIS      MOSUNNY   87  77  72 S9        29.99F HX  99
ANDREWS AFB    SUNNY     92  68  45 SW8       29.99F HX  96
PHILADELPHIA   MOSUNNY   93  68  43 SW10      29.97F HX  97
HENDERSON NC   SUNNY     88  62  40 CALM      30.04S
GREENSBORO     MOSUNNY   91  64  40 VRB5      30.06S
ROCKY MOUNT    SUNNY     89  68  49 CALM      30.03S
$$

VAZ100-192300-
MARINE

STATION/POSITION TIME  TEMP    WIND        PRES    WAVE   SWELL
                       AIR SEA DIR/SP/G            HT/PER HT/PER
                 (UTC) (F)     (DEG/KT/KT) (MB)    (FT/S) (FT/S)
BRANDYWINE LGT   2148          180/ 15/ 16 1016.3F
CAPE MAY NJ      2148   78 77  180/  9/ 11 1015.9F
LEWES DE         2148   86 77  170/  6/  8 1015.8F
15NM E FENWICK I 2150   78 78  200/ 12/ 14 1016.9F   2/16   2/16
OCEAN-CITY-INLET 2148   78 72  200/  6/  9 1017.0F
WACHAPREAGUE VA  2148   81 84  170/ 10/ 12 1016.7F
THOMAS POINT MD  2200   85 83  170/ 11/ 12   N/A
GOOSES REEF MD   2150   86     170/ 10/ 12 1016.7F
COVE POINT MD    2148   84     180/  8/ 10 1016.7F
SOLOMONS ISLAND  2148   86 87  120/  7/  8   N/A
BISHOPS HEAD MD  2148   89     210/  5/  5 1016.4F
PINEY POINT MD   2142          160/  9/ 10   N/A
POTOMAC MD       2150   86     150/  8/ 10 1015.3F
CAMBRIDGE MD     2148                      1016.8F
LEWISETTA VA     2148   87 88  100/  6/  7 1016.1F
RAPPAHANNOCK LGT 2142          190/  7/  8 1017.3F
STINGRAY PT      2150   84     180/ 10/ 14 1016.8F
YORK RVR RNG VA  2148   83     150/ 11/ 12 1016.9R
YORKTOWN VA      2148   85 83   90/ 10/ 12 1016.0F
JAMESTOWN VA     2150          160/  4/  6   N/A
DOMINION TERM VA 2148   87     100/  4/  7 1016.5F
KIPTOPEKE VA     2148      81  170/ 12/ 14   N/A
CHES BAY BRIDGE  2148   85 76  150/  6/ 10 1016.6F
CAPE HENRY VA    2148   81     150/ 11/ 15   N/A
WILLOUBY STN VA  2148   84     100/  7/  8 1016.5F
S CRANEY ISL VA  2148   88     240/  3/  5 1016.2F
CAPE HENRY BUOY  2130      77                N/A     2/17   2/17
1ST LANDING BUOY 2150   83                 1016.5F
64NM E OF VA BCH 2150   80 82  200/ 10/ 12 1017.9F   2/ 8   2/ 8
DUCK PIER NC     2148   74 63  150/ 10/ 12 1017.1F
44100 DUCK FRF   2105      78                N/A     2/15   2/15
OREGON INLET NC  2148          140/  5/  9 1017.7F
HATTERAS NC      2148   83 81  160/  8/ 11 1018.0S
DIAMOND SHLS NC  2150   82 86  170/  8/ 10 1017.9F   2/ 8   2/ 8
CAPE LOOKOUT NC  2200   81     160/  6/  7 1017.7R
$$




USA.gov is the U.S. government's official web portal to all federal, state and local government web resources and services.